Regional Weather Roundup
Issued by NWS Little Rock, AR

Home | Current Version | Previous Version | Graphics & Text | Print | Product List | Glossary On
Versions: 1 2 3 4 5 6 7 8 9 10 11 12 13 14 15 16 17 18 19 20 21 22 23 24 25 26 27 28 29 30 31 32 33 34 35 36 37 38 39 40 41 42 43 44 45 46 47 48 49 50
000
ASUS44 KLZK 011805
RWRLZK

WEATHER ROUNDUP FOR ARKANSAS
NATIONAL WEATHER SERVICE LITTLE ROCK AR
100 PM CDT MON SEP 01 2014

NOTE: "FAIR" INDICATES FEW OR NO CLOUDS BELOW 12,000 FEET WITH NO
SIGNIFICANT WEATHER AND/OR OBSTRUCTIONS TO VISIBILITY.

ARZ001-003-010-029-011900-
NORTHWEST ARKANSAS

CITY           SKY/WX    TMP DP  RH WIND       PRES   REMARKS
FAYETTEVILLE   MOSUNNY   83  70  64 S16       29.97F HX  87
6HR MIN TEMP:  66; 6HR MAX TEMP:  83; 6HR PCP:  0.01;

FORT SMITH     PTSUNNY   90  70  51 S12G17    29.93F HX  95
6HR MIN TEMP:  76; 6HR MAX TEMP:  90;

HARRISON       MOSUNNY   78  66  66 SE13      30.02F
6HR MIN TEMP:  65; 6HR MAX TEMP:  78; 6HR PCP:  0.01;

BENTONVILLE    SUNNY     77  66  69 SE14G21   29.97F
6HR MIN TEMP:  64; 6HR MAX TEMP:  79; 6HR PCP:  0.45;

ROGERS         SUNNY     76  65  68 E15       29.97F
6HR MIN TEMP:  64; 6HR MAX TEMP:  76; 6HR PCP:  0.50;

HIGHFILL       SUNNY     78  67  68 SE15      29.96F
6HR MIN TEMP:  65; 6HR MAX TEMP:  78; 6HR PCP:  0.22;

SPRINGDALE     MOSUNNY   79  68  69 SE12      29.99F
$$

ARZ004-005-016-011900-
NORTH CENTRAL ARKANSAS

CITY           SKY/WX    TMP DP  RH WIND       PRES   REMARKS
BATESVILLE     MOSUNNY   90  70  51 SW6       29.99F HX  95
6HR MIN TEMP:  75; 6HR MAX TEMP:  90;

FLIPPIN        MOSUNNY   75  63  64 SE3       30.00F
6HR MIN TEMP:  68; 6HR MAX TEMP:  77; 6HR PCP:  0.02;

MTN HOME       PTSUNNY   76  65  68 S7        29.99F
6HR MIN TEMP:  67; 6HR MAX TEMP:  76; 6HR PCP:  0.13;

$$

ARZ040-041-011900-
WEST CENTRAL ARKANSAS

CITY           SKY/WX    TMP DP  RH WIND       PRES   REMARKS
MENA           MOSUNNY   88  72  58 CALM      30.01F HX  94
MOUNT IDA      PTSUNNY   85  70  60 VRB7      29.99F HX  89
6HR MIN TEMP:  77; 6HR MAX TEMP:  86;

$$

ARZ009-017-025-026-028-011900-
NORTHEAST ARKANSAS

CITY           SKY/WX    TMP DP  RH WIND       PRES   REMARKS
CORNING          N/A     82  73  74 S5        29.99F HX  88
JONESBORO      MOSUNNY   89  72  56 SW15      30.00F HX  96
6HR MIN TEMP:  76; 6HR MAX TEMP:  89;

NEWPORT        MOSUNNY   90  73  57 S14       30.01F HX  98
6HR MIN TEMP:  75; 6HR MAX TEMP:  91;

WALNUT RIDGE   PTSUNNY   88  55  33 W5G18     29.98F HX  86
6HR MIN TEMP:  73; 6HR MAX TEMP:  88;

BLYTHEVILLE    MOSUNNY   87  74  64 SW10G18   30.02F HX  95
6HR MIN TEMP:  76; 6HR MAX TEMP:  88;

$$

ARZ022-023-033-042-044-011900-
CENTRAL ARKANSAS

CITY           SKY/WX    TMP DP  RH WIND       PRES   REMARKS
LITTLE ROCK    PTSUNNY   88  70  55 S10G18    30.02F HX  93
6HR MIN TEMP:  77; 6HR MAX TEMP:  88;

N LITTLE ROCK  PTSUNNY   87  73  63 S7G17     30.02F HX  95
6HR MIN TEMP:  76; 6HR MAX TEMP:  87;

JACKSONVILLE   MOSUNNY   89  72  58 SE9       30.01F HX  95
6HR MIN TEMP:  77; 6HR MAX TEMP:  89;

SEARCY         SUNNY     89  73  59 MISG      30.02F HX  96
6HR MIN TEMP:  74; 6HR MAX TEMP:  90;

HOT SPRINGS    MOSUNNY   88  69  53 S9        30.01F HX  92
6HR MIN TEMP:  76; 6HR MAX TEMP:  88;

RUSSELLVILLE   PTSUNNY   87  71  58 VRB3      29.98F HX  93
6HR MIN TEMP:  76; 6HR MAX TEMP:  87;

CLINTON        PTSUNNY   84  73  70 CALM      30.00F HAZE    HX  91
$$

ARZ036-011900-
EAST ARKANSAS

CITY           SKY/WX    TMP DP  RH WIND       PRES   REMARKS
WEST MEMPHIS   MOSUNNY   88  76  67 SW9       30.02F HX  99
6HR MIN TEMP:  76; 6HR MAX TEMP:  88;

$$

ARZ050-053-066-070-073-011900-
SOUTHWEST ARKANSAS

CITY           SKY/WX    TMP DP  RH WIND       PRES   REMARKS
ARKADELPHIA    FAIR      87  75  67 S7        30.01F HX  96
6HR MIN TEMP:  74; 6HR MAX TEMP:  89;

CAMDEN         SUNNY     90  72  55 SW8       30.01F HX  96
TEXARKANA      MOSUNNY   89  72  56 VRB3      29.99F HX  96
6HR MIN TEMP:  76; 6HR MAX TEMP:  89;

EL DORADO      SUNNY     88  74  63 VRB7      30.02F HX  96
6HR MIN TEMP:  73; 6HR MAX TEMP:  89;

DE QUEEN       MOSUNNY   87  73  62 VRB7      29.96F HX  94
6HR MIN TEMP:  76; 6HR MAX TEMP:  88;

$$

ARZ056-057-069-011900-
SOUTHEAST ARKANSAS

CITY           SKY/WX    TMP DP  RH WIND       PRES   REMARKS
PINE BLUFF     PTSUNNY   86  73  65 MISG      30.03F HX  93
6HR MIN TEMP:  72; 6HR MAX TEMP:  86; 6HR PCP: TRACE;

STUTTGART      SUNNY     88  73  62 SW13      30.04F HX  96
6HR MIN TEMP:  73; 6HR MAX TEMP:  88;

MONTICELLO     MOSUNNY   86  73  65 SW10      30.04F HX  93
6HR MIN TEMP:  73; 6HR MAX TEMP:  86;


$$





USA.gov is the U.S. government's official web portal to all federal, state and local government web resources and services.